Tracking 30703 objects as of 14-Jun-2025
HD Live streaming from Space Station
objects crossing your sky now

USA 236

Track USA 236 now!
USA 236 is classified as:


NORAD ID: 38466
Int'l Code: 2012-033A
Perigee: 35,771.9 km
Apogee: 35,816.6 km
Inclination: 6.7 °
Period: 1,436.1 minutes
Semi major axis: 42165 km
RCS: Unknown
Launch date: June 20, 2012
Source: United States (US)
Launch site: AIR FORCE EASTERN TEST RANGE (AFETR)

NROL-38 (USA 236) is a classified satellite.
Your satellite tracking list
Your tracking list is empty




NASA's NSSDC Master Catalog

Two Line Element Set (TLE):
1 38466U 12033A   25049.88538066 0.00000000  00000-0  00000-0 0    03
2 38466   6.7157  83.9931 0005303 186.3128 173.6933  1.00270000    00
Source of the keplerian elements: McCants